Abha, Saudi Arabia

10:42 PM +03 on July 21, 2019 (GMT +0300)
Abha

Weather History for OEAB - May, 2019

Change the Weather History Date:

Wednesday, May 8, 2019

  Actual Average Record
Temperature  
Mean Temperature 73 °F -  
Max Temperature 82 °F 81 °F 84 °F (1999)
Min Temperature 64 °F 59 °F 55 °F (2005)
Cooling Degree Days 8    
Growing Degree Days 23 (Base 50)    
Moisture  
Dew Point 52 °F    
Average Humidity 53    
Maximum Humidity 73    
Minimum Humidity 20    
Precipitation  
Precipitation 0.00 in - - ()
Sea Level Pressure  
Sea Level Pressure 30.24 in    
Wind  
Wind Speed 4 mph ()    
Max Wind Speed 14 mph    
Max Gust Speed -    
Visibility 6.2 miles    
Events Thunderstorm    
Averages and records for this station are not official NWS values.
T = Trace of Precipitation, MM = Missing Value Source: Averaged Metar Reports

Daily Weather History Graph

Daily Weather History Graph

Search for Another Location

Airport or City:

Astronomy

May. 08, 2019 Rise Set
Actual Time 5:39 AM +03 6:32 PM +03
Civil Twilight 5:16 AM +03 6:55 PM +03
Nautical Twilight 4:49 AM +03 7:23 PM +03
Astronomical Twilight 4:21 AM +03 7:50 PM +03
Moon 8:28 AM +03 (5/8) 9:58 PM +03 (5/8)
Length of Visible Light 13h 39m
Length of Day
12h 53m
Waxing Crescent, 13% of the Moon is Illuminated
May 8
Waxing Crescent
May 12
First Quarter
May 19
Full
May 26
Last Quarter
Jun 3
New

Hourly Weather History & Observations

Time (+03) Temp. Dew Point Humidity Pressure Visibility Wind Dir Wind Speed Gust Speed Precip Events Conditions
12:00 AM 66 °F 57 °F 66%  in 6 mi Calm Calm - -  
12:00 AM 66.2 °F 57.2 °F 73% 30.27 in - Calm Calm - N/A   Clear
2:00 AM 66.2 °F 53.6 °F 64% 30.24 in - SSW 3.5 mph - N/A   Clear
3:00 AM 64.4 °F 51.8 °F 64% 30.24 in - South 3.5 mph - N/A   Clear
4:00 AM 64.4 °F 51.8 °F 64% 30.24 in - Calm Calm - N/A   Clear
5:00 AM 66.2 °F 55.4 °F 68% 30.24 in - WSW 3.5 mph - N/A   Clear
6:00 AM 64.4 °F 51.8 °F 64% 30.24 in - Calm Calm - N/A   Clear
7:00 AM 68.0 °F 53.6 °F 60% 30.27 in - Calm Calm - N/A   Clear
8:00 AM 73.4 °F 50.0 °F 44% 30.27 in - NE 3.5 mph - N/A   Clear
9:00 AM 77.0 °F 37.4 °F 24% 30.30 in - NE 8.1 mph - N/A   Clear
10:00 AM 80.6 °F 35.6 °F 20% 30.30 in - South 6.9 mph - N/A   Clear
11:00 AM 82.4 °F 39.2 °F 21% 30.27 in 6.2 mi SSE 8.1 mph - N/A   Partly Cloudy
12:00 PM 82.4 °F 48.2 °F 30% 30.27 in 6.2 mi South 9.2 mph - N/A   Scattered Clouds
1:00 PM 78.8 °F 51.8 °F 39% 30.24 in 6.2 mi SSW 13.8 mph - N/A Thunderstorm Thunderstorm
3:00 PM 75.2 °F 55.4 °F 50% 30.21 in 6.2 mi SSW 13.8 mph - N/A Thunderstorm Thunderstorm
4:00 PM 77.0 °F 50.0 °F 39% 30.21 in 6.2 mi SSW 11.5 mph - N/A   Partly Cloudy
5:00 PM 77.0 °F 53.6 °F 44% 30.18 in 6.2 mi SW 11.5 mph - N/A   Partly Cloudy
6:00 PM 75 °F 57 °F 44%  in 6 mi SSW 6.9 mph - -   Scattered Clouds
6:00 PM 75.2 °F 57.2 °F 53% 30.18 in 6.2 mi SSW 6.9 mph - N/A   Partly Cloudy
7:00 PM 71.6 °F 57.2 °F 60% 30.21 in 6.2 mi SSW 6.9 mph - N/A   Partly Cloudy
8:00 PM 69.8 °F 60.8 °F 73% 30.21 in - South 6.9 mph - N/A   Clear
9:00 PM 69.8 °F 60.8 °F 73% 30.24 in - South 4.6 mph - N/A   Clear
10:00 PM 68.0 °F 59.0 °F 73% 30.24 in - Calm Calm - N/A   Clear